This is the latest recevied weather packets stored in our database for station/object KK4WXG. If no packets are shown the sender has not sent any weather packets the latest 10 day(s).
| Time | Temp. | Humidity | Pressure | Rain* | Wind** | Luminosity | Snow |
|---|---|---|---|---|---|---|---|
| 1778088688 | 18.89° C | 81% | 1008.1 hPa | 0 mm | - | 323 W/m² | - |
| 1778088385 | 18.89° C | 81% | 1008.1 hPa | 0 mm | - | 350 W/m² | - |
| 1778088081 | 18.89° C | 81% | 1007.9 hPa | 0 mm | - | 281 W/m² | - |
| 1778087779 | 18.89° C | 80% | 1007.9 hPa | 0 mm | - | 255 W/m² | - |
| 1778087477 | 18.89° C | 82% | 1008.1 hPa | 0 mm | - | 272 W/m² | - |
| 1778087174 | 18.89° C | 80% | 1008 hPa | 0 mm | - | 325 W/m² | - |
| 1778086871 | 18.89° C | 83% | 1008 hPa | 0 mm | - | 483 W/m² | - |
| 1778086570 | 18.33° C | 82% | 1008 hPa | 0 mm | - | 358 W/m² | - |
| 1778086265 | 18.89° C | 83% | 1007.8 hPa | 0 mm | - | 384 W/m² | - |
| 1778085963 | 18.33° C | 83% | 1008.1 hPa | 0 mm | - | 402 W/m² | - |
| 1778085660 | 18.89° C | 82% | 1008 hPa | 0 mm | - | 410 W/m² | - |
| 1778085355 | 18.89° C | 84% | 1008.1 hPa | 0 mm | - | 683 W/m² | - |
| 1778085052 | 18.33° C | 85% | 1008 hPa | 0 mm | - | 573 W/m² | - |
| 1778084748 | 18.33° C | 85% | 1008 hPa | 0 mm | - | 507 W/m² | - |
| 1778084446 | 17.78° C | 84% | 1007.8 hPa | 0 mm | - | 449 W/m² | - |
| 1778084143 | 17.78° C | 85% | 1008.1 hPa | 0 mm | - | 396 W/m² | - |
| 1778083839 | 17.78° C | 87% | 1008.1 hPa | 0 mm | - | 359 W/m² | - |
| 1778083537 | 17.78° C | 87% | 1008.2 hPa | 0 mm | - | 305 W/m² | - |
| 1778083234 | 17.78° C | 87% | 1008 hPa | 0 mm | - | 299 W/m² | - |
| 1778082933 | 17.22° C | 88% | 1008 hPa | 0 mm | - | 348 W/m² | - |
| 1778081824 | 16.67° C | 90% | 1008.3 hPa | 0 mm | - | 184 W/m² | - |
| 1778081521 | 16.67° C | 90% | 1008.5 hPa | 0 mm | - | 194 W/m² | - |
| 1778081218 | 16.67° C | 90% | 1008.2 hPa | 0 mm | - | 314 W/m² | - |
| 1778080915 | 16.67° C | 90% | 1008.2 hPa | 0 mm | - | 220 W/m² | - |
| 1778080614 | 16.67° C | 92% | 1008.4 hPa | 0 mm | - | 335 W/m² | - |
* Rain latest hour (hover to see other rain measurements)
** Current wind speed in m/s (hover to see current wind gust speed)